When you browse on this site, cookies collect data to enhance your experience and personalize the content and advertising you see.
Visit our Privacy Policy to learn more. By continuing to use the site, you agree to this use of cookies and data.
  • En Estados Unidos
  • Lista de países
  • Para 7 días
  • Temperatura del agua
  • Mapa Satelital
  • El tiempo en el mapa
  • Informadores
  • user-avatar
    Iniciar sesión

    Tiempo cada hora Baton-Ruzh

    Hoy, 12 Diciembre, Miércoles

    Tiempo Temperatura Precipitaciones Viento Presión Humedad
    00:00 +5°C° 0 mm 1 mps 768 mmHg 59%
    01:00 +5°C° 0 mm 1 mps 767 mmHg 59%
    02:00 +5°C° 0 mm 1 mps 767 mmHg 59%
    03:00 +5°C° 0 mm 1 mps 767 mmHg 59%
    04:00 +5°C° 0 mm 1 mps 767 mmHg 59%
    05:00 +5°C° 0 mm 1 mps 767 mmHg 60%
    06:00 +5°C° 0 mm 1 mps 767 mmHg 60%
    07:00 +6°C° 0 mm 2 mps 767 mmHg 61%
    08:00 +8°C° 0 mm 2 mps 767 mmHg 61%
    09:00 +9°C° 0 mm 2 mps 767 mmHg 62%
    10:00 +12°C° 0 mm 2 mps 766 mmHg 61%
    11:00 +14°C° 0 mm 2 mps 766 mmHg 61%
    12:00 +17°C° 0 mm 3 mps 765 mmHg 60%
    13:00 +17°C° 0 mm 2 mps 764 mmHg 62%
    14:00 +18°C° 0 mm 2 mps 764 mmHg 64%
    15:00 +18°C° 0 mm 2 mps 763 mmHg 66%
    16:00 +17°C° 0 mm 2 mps 763 mmHg 72%
    17:00 +15°C° 0 mm 2 mps 763 mmHg 78%
    18:00 +14°C° 0 mm 2 mps 763 mmHg 85%
    19:00 +14°C° 0 mm 2 mps 763 mmHg 86%
    20:00 +14°C° 0 mm 2 mps 762 mmHg 87%
    21:00 +14°C° 0 mm 2 mps 762 mmHg 88%
    22:00 +14°C° 0 mm 2 mps 762 mmHg 87%
    23:00 +14°C° 0 mm 2 mps 762 mmHg 87%

    Mañana, 13 Diciembre, Jueves

    Tiempo Temperatura Precipitaciones Viento Presión Humedad
    00:00 +15°C° 0 mm 2 mps 761 mmHg 86%
    01:00 +15°C° 0 mm 2 mps 761 mmHg 86%
    02:00 +14°C° 0 mm 3 mps 761 mmHg 85%
    03:00 +14°C° 0 mm 3 mps 760 mmHg 85%
    04:00 +16°C° 0.1 mm 3 mps 760 mmHg 86%
    05:00 +16°C° 0.1 mm 3 mps 759 mmHg 87%
    06:00 +15°C° 0.1 mm 4 mps 758 mmHg 88%
    07:00 +15°C° 0.7 mm 4 mps 758 mmHg 89%
    08:00 +17°C° 0.7 mm 4 mps 758 mmHg 90%
    09:00 +17°C° 0.7 mm 4 mps 758 mmHg 91%
    10:00 +17°C° 2.5 mm 4 mps 758 mmHg 91%
    11:00 +18°C° 2.5 mm 4 mps 757 mmHg 92%
    12:00 +18°C° 2.5 mm 4 mps 756 mmHg 93%
    13:00 +18°C° 2.9 mm 4 mps 755 mmHg 92%
    14:00 +18°C° 2.9 mm 4 mps 755 mmHg 92%
    15:00 +18°C° 2.9 mm 4 mps 754 mmHg 92%
    16:00 +18°C° 0.3 mm 4 mps 754 mmHg 93%
    17:00 +18°C° 0.3 mm 4 mps 754 mmHg 94%
    18:00 +18°C° 0.3 mm 3 mps 753 mmHg 95%
    19:00 +17°C° 0.3 mm 3 mps 754 mmHg 92%
    20:00 +17°C° 0.3 mm 4 mps 754 mmHg 89%
    21:00 +15°C° 0.3 mm 4 mps 754 mmHg 86%
    22:00 +13°C° 0 mm 4 mps 754 mmHg 85%
    23:00 +12°C° 0 mm 3 mps 754 mmHg 83%

    Pasado mañana, 14 Diciembre, Viernes

    Tiempo Temperatura Precipitaciones Viento Presión Humedad
    00:00 +10°C° 0 mm 3 mps 754 mmHg 81%
    01:00 +10°C° 0 mm 3 mps 754 mmHg 82%
    02:00 +10°C° 0 mm 3 mps 753 mmHg 83%
    03:00 +9°C° 0 mm 3 mps 753 mmHg 84%
    04:00 +9°C° 0 mm 3 mps 753 mmHg 83%
    05:00 +9°C° 0 mm 3 mps 753 mmHg 83%
    06:00 +9°C° 0 mm 3 mps 752 mmHg 83%
    07:00 +8°C° 0.1 mm 4 mps 753 mmHg 81%
    08:00 +8°C° 0.1 mm 4 mps 753 mmHg 80%
    09:00 +8°C° 0.1 mm 5 mps 753 mmHg 79%
    10:00 +8°C° 0.2 mm 5 mps 753 mmHg 79%
    11:00 +8°C° 0.2 mm 6 mps 753 mmHg 79%
    12:00 +9°C° 0.2 mm 6 mps 753 mmHg 80%
    13:00 +8°C° 0.1 mm 6 mps 753 mmHg 80%
    14:00 +8°C° 0.1 mm 6 mps 753 mmHg 81%
    15:00 +8°C° 0.1 mm 6 mps 754 mmHg 81%
    16:00 +8°C° 0.1 mm 6 mps 754 mmHg 82%
    17:00 +7°C° 0.1 mm 5 mps 755 mmHg 83%
    18:00 +6°C° 0.1 mm 5 mps 756 mmHg 84%
    19:00 +6°C° 0 mm 5 mps 757 mmHg 84%
    20:00 +6°C° 0 mm 5 mps 757 mmHg 84%
    21:00 +6°C° 0 mm 4 mps 758 mmHg 84%
    22:00 +6°C° 0 mm 4 mps 758 mmHg 84%
    23:00 +6°C° 0 mm 4 mps 758 mmHg 85%

    15 Diciembre, Sábado

    Tiempo Temperatura Precipitaciones Viento Presión Humedad
    00:00 +5°C° 0 mm 4 mps 759 mmHg 85%
    01:00 +5°C° 0 mm 4 mps 759 mmHg 86%
    02:00 +5°C° 0 mm 3 mps 759 mmHg 88%
    03:00 +5°C° 0 mm 3 mps 759 mmHg 89%
    04:00 +5°C° 0 mm 3 mps 760 mmHg 89%
    05:00 +5°C° 0 mm 3 mps 760 mmHg 89%
    06:00 +7°C° 0 mm 3 mps 761 mmHg 88%
    07:00 +7°C° 0 mm 3 mps 761 mmHg 86%
    08:00 +8°C° 0 mm 3 mps 762 mmHg 84%
    09:00 +8°C° 0 mm 3 mps 762 mmHg 81%
    10:00 +10°C° 0 mm 3 mps 762 mmHg 78%
    11:00 +11°C° 0 mm 3 mps 762 mmHg 74%
    12:00 +12°C° 0 mm 3 mps 762 mmHg 70%
    13:00 +12°C° 0 mm 3 mps 762 mmHg 69%
    14:00 +13°C° 0 mm 3 mps 762 mmHg 69%
    15:00 +13°C° 0 mm 3 mps 762 mmHg 68%
    16:00 +13°C° 0 mm 2 mps 762 mmHg 72%
    17:00 +12°C° 0 mm 2 mps 763 mmHg 77%
    18:00 +10°C° 0 mm 2 mps 764 mmHg 82%
    19:00 +10°C° 0 mm 1 mps 764 mmHg 84%
    20:00 +10°C° 0 mm 1 mps 765 mmHg 85%
    21:00 +10°C° 0 mm 1 mps 765 mmHg 87%
    22:00 +9°C° 0 mm 1 mps 765 mmHg 88%
    23:00 +9°C° 0 mm 1 mps 765 mmHg 90%

    16 Diciembre, Domingo

    Tiempo Temperatura Precipitaciones Viento Presión Humedad
    00:00 +8°C° 0 mm 1 mps 765 mmHg 92%
    01:00 +8°C° 0 mm 1 mps 765 mmHg 92%
    02:00 +8°C° 0 mm 1 mps 766 mmHg 92%
    03:00 +8°C° 0 mm 1 mps 766 mmHg 93%
    04:00 +8°C° 0 mm 1 mps 766 mmHg 93%
    05:00 +7°C° 0 mm 1 mps 767 mmHg 93%
    06:00 +7°C° 0 mm 1 mps 767 mmHg 93%
    07:00 +9°C° 0 mm 1 mps 767 mmHg 89%
    08:00 +10°C° 0 mm 1 mps 768 mmHg 84%
    09:00 +11°C° 0 mm 1 mps 768 mmHg 79%
    10:00 +13°C° 0 mm 1 mps 768 mmHg 74%
    11:00 +14°C° 0 mm 1 mps 767 mmHg 70%
    12:00 +16°C° 0 mm 2 mps 767 mmHg 65%
    13:00 +16°C° 0 mm 2 mps 767 mmHg 65%
    14:00 +17°C° 0 mm 2 mps 766 mmHg 65%
    15:00 +17°C° 0 mm 2 mps 766 mmHg 65%
    16:00 +15°C° 0 mm 2 mps 766 mmHg 72%
    17:00 +14°C° 0 mm 2 mps 767 mmHg 79%
    18:00 +12°C° 0 mm 2 mps 767 mmHg 86%
    19:00 +12°C° 0 mm 2 mps 767 mmHg 88%
    20:00 +11°C° 0 mm 1 mps 768 mmHg 90%
    21:00 +11°C° 0 mm 1 mps 768 mmHg 92%
    22:00 +10°C° 0 mm 1 mps 768 mmHg 93%
    23:00 +10°C° 0 mm 1 mps 768 mmHg 93%

    17 Diciembre, Lunes

    Tiempo Temperatura Precipitaciones Viento Presión Humedad
    00:00 +10°C° 0 mm 1 mps 768 mmHg 94%
    01:00 +9°C° 0 mm 1 mps 768 mmHg 94%
    02:00 +9°C° 0 mm 1 mps 768 mmHg 95%
    03:00 +9°C° 0 mm 1 mps 768 mmHg 95%
    04:00 +9°C° 0 mm 1 mps 768 mmHg 95%
    05:00 +8°C° 0 mm 1 mps 768 mmHg 95%
    06:00 +8°C° 0 mm 1 mps 768 mmHg 95%
    07:00 +9°C° 0 mm 1 mps 768 mmHg 91%
    08:00 +10°C° 0 mm 1 mps 769 mmHg 87%
    09:00 +11°C° 0 mm 1 mps 769 mmHg 83%
    10:00 +13°C° 0 mm 1 mps 769 mmHg 76%
    11:00 +14°C° 0 mm 1 mps 768 mmHg 70%
    12:00 +16°C° 0 mm 1 mps 768 mmHg 63%
    13:00 +16°C° 0 mm 1 mps 767 mmHg 63%
    14:00 +18°C° 0 mm 1 mps 767 mmHg 62%
    15:00 +18°C° 0 mm 1 mps 767 mmHg 61%
    16:00 +16°C° 0 mm 1 mps 767 mmHg 67%
    17:00 +14°C° 0 mm 1 mps 767 mmHg 73%
    18:00 +13°C° 0 mm 1 mps 767 mmHg 78%
    19:00 +13°C° 0 mm 1 mps 768 mmHg 80%
    20:00 +12°C° 0 mm 1 mps 768 mmHg 82%
    21:00 +12°C° 0 mm 1 mps 768 mmHg 85%
    22:00 +11°C° 0 mm 1 mps 768 mmHg 86%
    23:00 +11°C° 0 mm 1 mps 767 mmHg 87%
    Mostrar más